South Hill, VA

10:38 AM EST on December 11, 2019 (GMT -0500)
Mecklenburg-Brunswick Regional

Weather History for KAVC - September, 2019

Change the Weather History Date:

Wednesday, September 11, 2019

  Actual Average (KEMV) Record (KEMV)
Temperature  
Mean Temperature 77 °F -  
Max Temperature 91 °F 85 °F 96 °F (2007)
Min Temperature 63 °F 60 °F 48 °F (1982)
Cooling Degree Days 12    
Growing Degree Days 27 (Base 50)    
Moisture  
Dew Point 71 °F    
Average Humidity 84    
Maximum Humidity 100    
Minimum Humidity 52    
Precipitation  
Precipitation 0.00 in - - ()
Sea Level Pressure  
Sea Level Pressure 30.27 in    
Wind  
Wind Speed 2 mph (SSW)    
Max Wind Speed 10 mph    
Max Gust Speed -    
Averages and records for this station are not official NWS values.
T = Trace of Precipitation, MM = Missing Value Source: NWS Daily Summary

Daily Weather History Graph

Daily Weather History Graph

Search for Another Location

Airport or City:

Astronomy

Sep. 11, 2019 Rise Set
Actual Time 6:51 AM EDT 7:26 PM EDT
Civil Twilight 6:25 AM EDT 7:52 PM EDT
Nautical Twilight 5:54 AM EDT 8:22 PM EDT
Astronomical Twilight 5:22 AM EDT 8:53 PM EDT
Moon 6:32 PM EDT 4:17 AM EDT
Length of Visible Light 13h 27m
Length of Day
12h 34m
Waxing Gibbous, 94% of the Moon is Illuminated
Sep 11
Waxing Gibbous
Sep 14
Full
Sep 21
Last Quarter
Sep 28
New
Oct 5
First Quarter

Hourly Weather History & Observations

Time (EDT) Temp. Heat Index Dew Point Humidity Pressure Visibility Wind Dir Wind Speed Gust Speed Precip Events Conditions
12:15 AM 67.5 °F - 67.5 °F 100% 30.35 in - Calm Calm - N/A   Unknown
12:35 AM 66.7 °F - 66.7 °F 100% 30.35 in - Calm Calm - N/A   Unknown
12:55 AM 68.0 °F - 68.0 °F 100% 30.35 in - Calm Calm - N/A   Unknown
1:15 AM 67.3 °F - 67.3 °F 100% 30.36 in - Calm Calm - N/A   Unknown
1:40 AM 66.4 °F - 66.4 °F 100% 30.36 in - Calm Calm - N/A   Unknown
1:55 AM 65.8 °F - 65.8 °F 100% 30.35 in - Calm Calm - N/A   Unknown
2:15 AM 64.9 °F - 64.9 °F 100% 30.35 in - Calm Calm - N/A   Unknown
2:35 AM 66.2 °F - 66.2 °F 100% 30.34 in - Calm Calm - N/A   Unknown
2:55 AM 66.2 °F - 66.2 °F 100% 30.34 in - Calm Calm - N/A   Unknown
3:15 AM 65.1 °F - 65.1 °F 100% 30.33 in - Calm Calm - N/A   Unknown
3:35 AM 64.6 °F - 64.6 °F 100% 30.33 in - Calm Calm - N/A   Unknown
4:15 AM 66.6 °F - 66.6 °F 100% 30.32 in - Calm Calm - N/A   Unknown
4:35 AM 64.9 °F - 64.9 °F 100% 30.32 in - Calm Calm - N/A   Unknown
4:55 AM 64.6 °F - 64.6 °F 100% 30.31 in - Calm Calm - N/A   Unknown
5:15 AM 65.7 °F - 65.7 °F 100% 30.32 in - Calm Calm - N/A   Unknown
5:35 AM 63.1 °F - 63.1 °F 100% 30.32 in - Calm Calm - N/A   Unknown
5:55 AM 64.6 °F - 64.6 °F 100% 30.32 in - Calm Calm - N/A   Overcast
6:15 AM 64.2 °F - 64.2 °F 100% 30.33 in - Calm Calm - N/A   Overcast
6:35 AM 64.2 °F - 64.2 °F 100% 30.34 in - Calm Calm - N/A   Overcast
6:55 AM 63.9 °F - 63.9 °F 100% 30.33 in - Calm Calm - N/A   Overcast
7:15 AM 64.6 °F - 64.6 °F 100% 30.34 in - Calm Calm - N/A   Overcast
7:35 AM 66.4 °F - 66.4 °F 100% 30.34 in - Calm Calm - N/A   Overcast
7:55 AM 67.8 °F - 67.8 °F 100% 30.34 in - Calm Calm - N/A   Overcast
8:15 AM 68.5 °F - 68.5 °F 100% 30.34 in - SSW 3.5 mph - N/A   Overcast
8:35 AM 68.9 °F - 68.9 °F 100% 30.35 in - SSW 3.5 mph - N/A   Overcast
8:55 AM 69.6 °F - 69.6 °F 100% 30.35 in - SSW 3.5 mph - N/A   Overcast
9:15 AM 70.3 °F - 70.3 °F 100% 30.36 in - SSW 5.8 mph - N/A   Overcast
9:35 AM 71.6 °F - 71.6 °F 100% 30.35 in - SSW 5.8 mph - N/A   Mostly Cloudy
9:55 AM 73.4 °F - 72.7 °F 98% 30.35 in - SSW 5.8 mph - N/A   Unknown
10:15 AM 75.6 °F - 73.4 °F 93% 30.34 in - Calm Calm - N/A   Unknown
10:35 AM 77.7 °F - 73.0 °F 85% 30.34 in - SW 4.6 mph - N/A   Clear
10:55 AM 81.3 °F 86.5 °F 73.6 °F 77% 30.34 in - SSW 5.8 mph - N/A   Clear
11:15 AM 82.9 °F 88.3 °F 72.3 °F 70% 30.33 in - SSW 8.1 mph - N/A   Clear
11:35 AM 84.2 °F 89.6 °F 71.6 °F 66% 30.31 in - SSW 4.6 mph - N/A   Clear
11:55 AM 84.9 °F 90.4 °F 71.4 °F 64% 30.31 in - South 9.2 mph - N/A   Clear
12:15 PM 85.3 °F 91.1 °F 71.8 °F 64% 30.30 in - SSW 5.8 mph - N/A   Clear
12:35 PM 85.5 °F 91.8 °F 72.5 °F 65% 30.29 in - South 5.8 mph - N/A   Clear
12:55 PM 87.1 °F 94.1 °F 72.5 °F 62% 30.28 in - West 6.9 mph - N/A   Scattered Clouds
1:15 PM 87.8 °F 94.7 °F 72.5 °F 60% 30.27 in - South 6.9 mph - N/A   Mostly Cloudy
1:35 PM 88.3 °F 95.4 °F 72.5 °F 59% 30.26 in - South 5.8 mph - N/A   Mostly Cloudy
1:55 PM 88.7 °F 96.2 °F 72.5 °F 59% 30.25 in - South 3.5 mph - N/A   Scattered Clouds
2:20 PM 89.6 °F 96.6 °F 72.1 °F 56% 30.23 in - West 4.6 mph - N/A   Scattered Clouds
2:35 PM 89.8 °F 96.5 °F 71.8 °F 55% 30.23 in - Calm Calm - N/A   Scattered Clouds
2:55 PM 90.0 °F 96.4 °F 71.4 °F 54% 30.22 in - West 3.5 mph - N/A   Scattered Clouds
3:15 PM 90.9 °F 98.9 °F 72.5 °F 55% 30.21 in - South 5.8 mph - N/A   Scattered Clouds
3:35 PM 90.5 °F 98.1 °F 72.5 °F 55% 30.21 in - WSW 8.1 mph - N/A   Scattered Clouds
4:15 PM 91.4 °F 98.4 °F 71.8 °F 52% 30.19 in - South 4.6 mph - N/A   Scattered Clouds
4:35 PM 91.8 °F 99.1 °F 72.1 °F 52% 30.18 in - South 10.4 mph - N/A   Clear
4:55 PM 91.4 °F 98.4 °F 71.6 °F 52% 30.17 in - South 6.9 mph - N/A   Clear
5:15 PM 90.5 °F 98.6 °F 73.0 °F 56% 30.17 in - SSE 8.1 mph - N/A   Clear
5:35 PM 89.4 °F 97.8 °F 73.6 °F 59% 30.17 in - South 10.4 mph - N/A   Clear
5:55 PM 88.9 °F 97.6 °F 73.9 °F 61% 30.17 in - South 9.2 mph - N/A   Clear
6:15 PM 88.0 °F 97.0 °F 74.3 °F 64% 30.17 in - South 8.1 mph - N/A   Clear
6:35 PM 87.1 °F 95.9 °F 74.3 °F 66% 30.17 in - South 10.4 mph - N/A   Clear
6:55 PM 85.6 °F 93.8 °F 74.5 °F 69% 30.18 in - South 6.9 mph - N/A   Clear
7:15 PM 84.0 °F 91.2 °F 74.3 °F 72% 30.17 in - South 5.8 mph - N/A   Clear
7:35 PM 82.2 °F 89.1 °F 75.0 °F 79% 30.18 in - SSE 4.6 mph - N/A   Clear
7:55 PM 80.8 °F 86.5 °F 75.2 °F 83% 30.18 in - South 4.6 mph - N/A   Clear
8:15 PM 80.1 °F 85.1 °F 75.2 °F 85% 30.19 in - Calm Calm - N/A   Clear
8:35 PM 77.9 °F - 75.0 °F 91% 30.19 in - SSE 4.6 mph - N/A   Unknown
8:55 PM 77.9 °F - 75.2 °F 91% 30.20 in - South 4.6 mph - N/A   Unknown
9:35 PM 77.0 °F - 75.2 °F 94% 30.20 in - South 4.6 mph - N/A   Unknown
9:55 PM 77.0 °F - 75.2 °F 94% 30.21 in - SSW 5.8 mph - N/A   Unknown
10:15 PM 77.5 °F - 75.4 °F 93% 30.21 in - SSW 5.8 mph - N/A   Unknown
10:35 PM 77.7 °F - 75.2 °F 92% 30.20 in - SSW 6.9 mph - N/A   Unknown
10:55 PM 77.0 °F - 75.2 °F 94% 30.19 in - SSW 6.9 mph - N/A   Unknown
11:15 PM 77.0 °F - 74.8 °F 93% 30.18 in - South 5.8 mph - N/A   Unknown
11:35 PM 76.5 °F - 74.8 °F 95% 30.19 in - SSW 5.8 mph - N/A   Unknown
11:55 PM 76.6 °F - 74.8 °F 94% 30.20 in - SSW 4.6 mph - N/A   Unknown